Find Starlink 6085

NORAD ID: 57115 Int'l Des: 2023-090 Owner: SPXS Country: US Constellation: starlink operational
LEOCIRCULAR

Live-Position

3D-Globus wird geladen...

Über Starlink 6085

Beschreibung wird geladen...

Nächste Überflüge

Passes for default location (London). Set your location on the main map for personalized predictions.

Höhenverlauf

Loading altitude history...

Zweizeiliger Elementsatz

1 57115U 23090Q 26127.83552854 .00024548 00000-0 12759-2 0 9990
2 57115 42.9988 296.0395 0020719 227.1681 132.7425 15.15451797159511
Epoch: 7. Mai 2026 • Age: 7 hours

Aktueller Status

Höhe 521.7 km
Geschwindigkeit 7.61 km/s
Subsatellitenpunkt 30.24°N, 165.59°E
Startdatum 23. Juni 2023
Alter 2.8 years
Typ internet

Technische Details

Klassifizierung Payload
Masse 305.00 kg
Trockenmasse 290.00 kg
Gesamtmasse 305.00 kg
Länge 0.20 m
Durchmesser 2.80 m
Spannweite 9.00 m
Form Box + pan
Hersteller SPXS
Bus-Typ Starlink
Phasenstatus In Orbit
Besitzer/Staat SPXS/US

Most Searched